Overview Statistics Trail Chart Weather Telemetry Raw packets
 

This is the latest recevied weather packets stored in our database for station/object SQ6ILB-11. If no packets are shown the sender has not sent any weather packets the latest 10 day(s).

<< 32 33 34 35 36 37 38 >>
Time Temp. Humidity Pressure Rain* Wind** Luminosity Snow
1787847076 26.67° C 46% 989.4 hPa - - - -
1787846175 27.22° C 45% 989.7 hPa - - - -
1787845275 27.22° C 44% 990 hPa - - - -
1787844375 27.22° C 44% 990.1 hPa - - - -
1787843475 27.22° C 43% 990 hPa - - - -
1787842575 27.22° C 44% 990.2 hPa - - - -
1787841675 27.22° C 46% 990.1 hPa - - - -
1787840775 26.67° C 45% 990.1 hPa - - - -
1787839874 26.67° C 46% 990.1 hPa - - - -
1787838974 26.11° C 47% 990.2 hPa - - - -
1787838074 26.11° C 48% 990.2 hPa - - - -
1787837174 25.56° C 49% 990.3 hPa - - - -
1787836274 25.56° C 50% 990.4 hPa - - - -
1787835374 25.56° C 51% 990.4 hPa - - - -
1787834474 25° C 52% 990.1 hPa - - - -
1787833575 25° C 53% 990.4 hPa - - - -
1787832673 24.44° C 52% 990.4 hPa - - - -
1787831773 23.89° C 53% 990.5 hPa - - - -
1787830873 23.89° C 54% 990.6 hPa - - - -
1787829973 23.89° C 55% 990.6 hPa - - - -
1787829073 23.33° C 57% 990.6 hPa - - - -
1787828173 22.78° C 58% 991 hPa - - - -
1787827272 22.78° C 59% 991.1 hPa - - - -
1787826372 22.22° C 59% 991 hPa - - - -
1787825472 21.67° C 61% 990.9 hPa - - - -

* Rain since midnight (hover to see other rain measurements)
** Current wind speed in m/s (hover to see current wind gust speed)